EW5807 Weather Reports


Display with metric or nautical units.
time (UTC)temp
F
wind
direction
speed
MPH
gust
MPH
rain 1hr
in
rain 24hr
in
rain mn
in
humidity
%
barometer
mb
20260506061516 46 179 4.0 8.0 0.00 0.06 0.06 77 1010.6
20260506044537 47 212 4.0 9.0 0.00 0.06 0.06 77 1010.3
20260506043035 48 211 5.0 12.0 0.00 0.06 0.06 76 1009.9
20260506041537 46 229 6.0 11.0 0.00 0.06 0.06 80 1009.3
20260506040029 47 211 9.0 14.0 0.00 0.06 0.06 79 1009.0
20260506034524 47 197 7.0 12.0 0.00 0.06 0.06 79 1008.6
20260506033027 47 219 7.0 13.0 0.00 0.06 0.06 79 1008.3
20260506031552 47 265 5.0 9.0 0.00 0.06 0.06 81 1008.0
20260506030045 48 179 6.0 11.0 0.00 0.06 0.06 80 1007.8
20260506024541 49 199 3.0 9.0 0.00 0.06 0.06 78 1007.7
20260506023034 51 226 6.0 11.0 0.00 0.06 0.06 72 1007.5
20260506021534 53 216 8.0 12.0 0.00 0.06 0.06 70 1007.1
20260506020033 54 201 6.0 13.0 0.00 0.06 0.06 69 1007.0
20260506014542 54 248 6.0 12.0 0.00 0.06 0.06 67 1006.8
20260506013031 55 231 7.0 12.0 0.00 0.06 0.06 66 1006.8
20260506011527 55 194 6.0 11.0 0.00 0.06 0.06 68 1006.6
20260506010029 55 179 7.0 14.0 0.00 0.06 0.06 66 1006.3
20260506004536 55 219 8.0 14.0 0.01 0.06 0.06 64 1006.1
20260506003027 55 242 6.0 11.0 0.01 0.06 0.06 75 1005.9
20260506001523 52 149 1.0 4.0 0.01 0.06 0.06 76 1006.5
20260506000028 51 96 1.0 5.0 0.01 0.06 0.06 75 1006.7
20260505234521 51 246 3.0 7.0 0.00 0.05 0.05 73 1006.5
20260505233021 52 207 4.0 9.0 0.00 0.05 0.05 67 1006.4
20260505231554 53 222 5.0 9.0 0.00 0.05 0.05 68 1006.4
20260505230100 53 189 6.0 11.0 0.04 0.05 0.05 73 1006.3
20260505224532 52 203 4.0 11.0 0.05 0.05 0.05 81 1006.3
20260505223018 51 148 3.0 8.0 0.05 0.05 0.05 82 1006.6
20260505221512 50 110 1.0 4.0 0.05 0.05 0.05 77 1006.7
20260505220022 54 341 4.0 9.0 0.01 0.01 0.01 68 1007.2
20260505214509 57 197 2.0 8.0 0.00 0.00 0.00 53 1006.3
20260505213003 57 231 7.0 12.0 0.00 0.00 0.00 49 1006.1
20260505211502 59 226 8.0 13.0 0.00 0.00 0.00 47 1006.1
20260505210108 60 214 6.0 13.0 0.00 0.00 0.00 47 1006.2
20260505204559 61 211 7.0 15.0 0.00 0.00 0.00 45 1006.1
20260505203055 61 198 7.0 13.0 0.00 0.00 0.00 46 1006.2
20260505201557 59 250 5.0 10.0 0.00 0.00 0.00 49 1006.3
20260505200019 58 251 4.0 10.0 0.00 0.00 0.00 51 1006.6
20260505194518 57 271 5.0 10.0 0.00 0.00 0.00 51 1006.9
20260505193034 57 208 8.0 13.0 0.00 0.00 0.00 51 1006.8
20260505191510 58 193 4.0 12.0 0.00 0.00 0.00 51 1006.6
20260505190020 57 250 4.0 10.0 0.00 0.00 0.00 53 1006.5
20260505184502 57 219 2.0 13.0 0.00 0.00 0.00 53 1006.6
20260505183056 56 179 4.0 14.0 0.00 0.00 0.00 53 1006.5
20260505181551 55 251 6.0 13.0 0.00 0.00 0.00 56 1006.5
20260505180050 56 191 6.0 14.0 0.00 0.00 0.00 54 1006.3
20260505174543 57 194 9.0 16.0 0.00 0.00 0.00 53 1006.2
20260505173040 55 203 7.0 13.0 0.00 0.00 0.00 55 1006.3
20260505171536 55 232 7.0 13.0 0.00 0.00 0.00 55 1006.2
20260505170024 55 207 6.0 12.0 0.00 0.00 0.00 53 1005.9
20260505164532 56 229 7.0 14.0 0.00 0.00 0.00 52 1005.9
20260505163046 54 240 9.0 13.0 0.00 0.00 0.00 54 1006.0
20260505161542 53 231 8.0 14.0 0.00 0.00 0.00 55 1005.9
20260505153108 51 207 6.0 14.0 0.00 0.00 0.00 63 1005.6
20260505151552 51 220 6.0 13.0 0.00 0.00 0.00 64 1005.5
20260505150107 50 226 6.0 10.0 0.00 0.00 0.00 64 1005.5
20260505124501 0 0.0 0.0 0.00 0.00 0.00 1004.6
20260505123110 0 0.0 0.0 0.00 0.00 0.00 1004.6
20260505121550 0 0.0 0.0 0.00 0.00 0.00 1004.6
20260505120051 0 0.0 0.0 0.00 0.00 0.00 1004.9
20260505114552 0 0.0 0.0 0.00 0.00 0.00 1005.1
20260505113036 -90 263 3.0 6.0 0.00 0.00 0.00 78 1004.8
20260505111533 44 198 5.0 10.0 0.00 0.00 0.00 79 1004.7
20260505101556 43 228 5.0 10.0 0.00 0.00 0.00 82 1004.1
20260505100101 44 213 4.0 9.0 0.00 0.00 0.00 83 1004.1
20260505094520 44 188 4.0 11.0 0.00 0.00 0.00 82 1004.3
20260505093018 45 233 7.0 12.0 0.00 0.00 0.00 83 1004.3
20260505091549 45 197 7.0 13.0 0.00 0.00 0.00 84 1004.3
20260505090052 45 183 7.0 15.0 0.00 0.00 0.00 84 1004.5
20260505084541 45 198 7.0 15.0 0.00 0.00 0.00 83 1004.8
20260505083037 45 202 8.0 15.0 0.00 0.00 0.00 81 1004.8
20260505081542 46 221 9.0 16.0 0.00 0.00 0.00 80 1004.7
20260505080046 46 189 8.0 15.0 0.00 0.00 0.00 77 1004.6
20260505074559 46 185 7.0 14.0 0.00 0.00 0.00 77 1004.3
20260505073100 46 200 10.0 15.0 0.00 0.00 0.00 76 1004.4
20260505071555 47 195 10.0 17.0 0.00 0.00 0.00 74 1004.4
20260505070054 48 184 10.0 17.0 0.00 0.00 0.00 70 1004.3
20260505064548 48 206 11.0 16.0 0.00 0.00 0.00 69 1004.1